This is the latest recevied weather packets stored in our database for station/object DM8MH-13. If no packets are shown the sender has not sent any weather packets the latest 10 day(s).
| Time | Temp. | Humidity | Pressure | Rain* | Wind** | Luminosity | Snow |
|---|---|---|---|---|---|---|---|
| 1777969272 | 15.56° C | 88% | 1008.8 hPa | 0 mm | - | 143 W/m² | - |
| 1777968673 | 15.56° C | 89% | 1008.8 hPa | 0 mm | - | 126 W/m² | - |
| 1777968073 | 15.56° C | 89% | 1008.8 hPa | 0 mm | - | 121 W/m² | - |
| 1777967472 | 15.56° C | 90% | 1008.8 hPa | 0 mm | - | 145 W/m² | - |
| 1777966873 | 15.56° C | 90% | 1008.8 hPa | 0 mm | - | 128 W/m² | - |
| 1777966272 | 15° C | 90% | 1008.9 hPa | 0 mm | - | 99 W/m² | - |
| 1777965672 | 15° C | 91% | 1008.8 hPa | 0 mm | - | 91 W/m² | - |
| 1777965072 | 15° C | 91% | 1008.8 hPa | 0 mm | - | 105 W/m² | - |
| 1777964472 | 15° C | 92% | 1009 hPa | 0 mm | - | 109 W/m² | - |
| 1777963872 | 14.44° C | 92% | 1009 hPa | 0 mm | - | 130 W/m² | - |
| 1777963273 | 14.44° C | 92% | 1009 hPa | 0 mm | - | 134 W/m² | - |
| 1777962672 | 14.44° C | 92% | 1009 hPa | 0 mm | - | 99 W/m² | - |
| 1777962073 | 14.44° C | 92% | 1009.2 hPa | 0 mm | - | 75 W/m² | - |
| 1777961472 | 13.89° C | 92% | 1009.4 hPa | 0 mm | - | 77 W/m² | - |
| 1777960873 | 13.89° C | 92% | 1009.5 hPa | 0 mm | - | 82 W/m² | - |
| 1777960272 | 13.89° C | 92% | 1009.5 hPa | 0 mm | - | 68 W/m² | - |
| 1777959673 | 13.89° C | 92% | 1009.5 hPa | 0 mm | - | 62 W/m² | - |
| 1777959073 | 13.89° C | 92% | 1009.6 hPa | 0.25 mm | - | 50 W/m² | - |
| 1777958473 | 13.89° C | 92% | 1009.5 hPa | 0.51 mm | - | 37 W/m² | - |
| 1777957873 | 13.33° C | 92% | 1009.4 hPa | 0.51 mm | - | 31 W/m² | - |
| 1777957272 | 13.33° C | 92% | 1009.5 hPa | 0.51 mm | - | 27 W/m² | - |
| 1777956672 | 13.33° C | 92% | 1009.5 hPa | 0.51 mm | - | 28 W/m² | - |
| 1777956072 | 13.33° C | 91% | 1009.5 hPa | 0.51 mm | - | 20 W/m² | - |
| 1777955473 | 13.33° C | 91% | 1009.8 hPa | 0.25 mm | - | 16 W/m² | - |
| 1777954873 | 13.33° C | 91% | 1010 hPa | 0 mm | - | 3 W/m² | - |
* Rain latest hour (hover to see other rain measurements)
** Current wind speed in m/s (hover to see current wind gust speed)